WGS SV-8

operational
NORAD ID: 41879 Int'l Des: 2016-075 Owner: AFSMC Country: US
HEOCIRCULARGSOGEO

About WGS SV-8

Description loading...

Live Position

Loading 3D Globe...

Upcoming Passes

Altitude History

Altitude vs Time

uPlot chart will show altitude changes over time

Two-Line Element Set

1 41879U 16075A 26062.56697436 -.00000217 00000-0 00000-0 0 9991
2 41879 0.0077 168.9537 0000190 261.1765 85.1057 1.00271983 33768
Epoch: Mar 3, 2026 • Age: 29 hours

Current Status

Altitude 35785.4 km
Velocity 3.07 km/s
Sub-Earth Point -0.03°S, 149.81°E
Launch Date Dec 7, 2016
Age 9.2 years
Type other

Technical Details

Classification Payload
Mass 5987.00 kg
Dry Mass 3400.00 kg
Total Mass 5987.00 kg
Length 6.00 m
Diameter 3.00 m
Span 40.90 m
Shape Box + 2 pan
Manufacturer BOES
Bus Type BSS-702HP
Phase Status In Orbit
Owner/State AFSMC/US

Large Constellations

Loading constellations...